Flag for Canada Weather past 2 weeks in Rainy River, Ontario, Canada

Now
33 °F

Clear.


Feels Like: 30 °F
Forecast: 34 / 60 °F
Wind: 3 mph from Southeast

Location: Baudette International Airport

Current Time: Apr 26, 2015 at 5:38:47 AM

Latest Report: Apr 26, 2015 at 4:53 AM


Visibility: 10 mi

Pressure: 30.11 "Hg

Humidity: 70%

Dew point: 24 °F

Location of Rainy RiverLocation

Historic Weather in Rainy River — Graph

°F

Rainy River temperature yesterday

Maximum temperature yesterday: 60 °F (at 3:53 PM)
Minimum temperature yesterday: 37 °F (at 5:53 AM)
Average temperature yesterday: 47 °F

Past Weeks' High & Low Weather Summary

 TemperatureHumidityPressure
High72 °F (Apr 15, 4:53 PM)93% (Apr 19, 6:53 AM)30.24 "Hg (Apr 19, 6:53 AM)
Low21 °F (Apr 23, 5:53 AM)16% (Apr 14, 1:53 PM)29.40 "Hg (Apr 20, 2:59 PM)
Average44 °F53%29.89 "Hg
* Reported Apr 11 3:53 AM — Apr 26 3:53 AM, Rainy River, Weather by CustomWeather, © 2015

Note: Actual official high and low records may vary slightly from our data, if they occured in-between our weather recording intervals... More about our weather records

Advertising

Rainy River weather history for previous 24 hours

 ConditionsComfort  
Time TempWeatherWind HumidityBarometerVisibility
3:53 AM
Sun, Apr 26
35 °FClear.7 mph70%30.09 "Hg10 mi
2:53 AM35 °FClear.6 mph72%30.09 "Hg10 mi
1:53 AM36 °FClear.5 mph75%30.08 "Hg10 mi
12:53 AM36 °FClear.3 mph75%30.08 "Hg10 mi
11:53 PM
Sat, Apr 25
41 °FClear.5 mph62%30.06 "Hg10 mi
10:53 PM40 °FClear.3 mph77%30.05 "Hg10 mi
9:53 PM47 °FClear.No wind48%30.03 "Hg10 mi
8:53 PM47 °FSunny.8 mph50%30.02 "Hg10 mi
7:53 PM54 °FSunny.10 mph38%30.00 "Hg10 mi
6:53 PM57 °FSunny.9 mph34%29.98 "Hg10 mi
5:53 PM59 °FSunny.7 mph31%29.97 "Hg10 mi
4:53 PM59 °FSunny.10 mph31%29.96 "Hg10 mi
3:53 PM60 °FSunny.13 mph31%29.96 "Hg10 mi
2:53 PM59 °FSunny.13 mph31%29.96 "Hg10 mi
1:53 PM59 °FSunny.17 mph31%29.97 "Hg10 mi
12:53 PM56 °FSunny.9 mph33%29.98 "Hg10 mi
11:53 AM55 °FSunny.12 mph34%29.98 "Hg10 mi
10:53 AM50 °FSunny.8 mph36%29.99 "Hg10 mi
9:53 AM46 °FSunny.9 mph40%29.98 "Hg10 mi
8:53 AM42 °FQuite cool.13 mph45%29.99 "Hg10 mi
7:53 AM39 °FPassing clouds.12 mph48%29.98 "Hg10 mi
6:53 AM38 °FMostly cloudy.12 mph53%29.97 "Hg10 mi
5:53 AM37 °FOvercast.9 mph57%29.96 "Hg10 mi
Weather by CustomWeather, © 2015

See weather overviewHow to use our weather pages